Wind_Speed
7 7 7 8 9 9 10 10 10 10 10 11 11 9 8 6 1 2 3 7 6 6 4 5 9 10 10 15 15 15 8 9 8 6 19 10 16 14 11 11 11 8 9 17 18
8 8 9 9 10 10 11 11 11 11 11 10 11 10 8 3 3 8 6 7 7 7 8 11 11 11 15 13 14 7 4 9 12 6 17 7 19 6 14 9 10 11 13 17 18
9 9 10 10 11 11 12 12 12 11 11 11 10 10 8 1 6 6 3 4 6 11 6 10 12 13 16 15 12 11 6 7 8 7 4 16 13 7 13 8 11 13 16 16 17
11 11 11 11 12 12 12 12 12 12 12 11 10 9 6 5 3 1 2 5 7 9 9 10 12 15 21 12 4 12 4 5 10 8 5 3 15 12 7 10 10 15 17 17 16
11 12 12 12 12 13 13 13 12 12 12 11 10 9 4 7 0 1 0 4 3 3 10 14 17 18 21 6 5 15 5 5 6 5 2 4 5 9 5 8 11 16 17 16 15
12 12 13 14 13 13 14 13 13 13 11 11 10 9 6 13 1 1 2 3 3 6 8 11 14 11 17 8 9 3 3 5 6 9 5 11 11 8 12 11 14 16 16 15 14
12 13 13 14 14 13 14 14 13 13 11 10 9 8 8 9 3 5 4 5 6 5 7 6 6 12 13 9 6 8 12 12 12 11 9 10 1 14 14 15 16 17 16 15 14
13 13 13 14 14 14 13 13 13 12 11 9 8 6 10 4 7 8 6 7 8 8 8 6 6 12 11 5 9 15 18 14 14 9 7 8 16 46 17 16 16 17 17 17 15
13 13 14 14 13 13 13 13 12 12 10 8 5 4 10 3 6 8 9 9 8 10 10 9 8 16 14 13 17 15 3 15 13 3 4 9 4 13 12 14 15 16 17 17 16
12 13 13 13 13 12 12 12 11 10 10 8 8 7 11 6 5 6 8 10 9 9 10 12 14 14 14 16 16 13 12 23 2 5 8 11 10 9 8 12 15 17 17 17 18
12 12 12 12 12 11 9 7 9 5 10 14 3 12 2 5 6 8 9 10 11 12 13 16 13 17 21 18 21 14 11 8 2 5 9 12 12 8 14 8 12 15 19 18 18
12 12 11 11 10 8 5 7 5 5 10 13 16 15 10 5 7 10 11 11 13 14 15 7 15 19 20 11 10 10 10 10 6 2 9 7 10 10 2 7 8 15 17 20 19
11 10 9 9 7 4 3 3 5 6 9 12 15 16 15 14 14 13 14 15 10 13 14 14 10 20 6 10 11 14 15 12 9 8 11 8 12 9 9 7 7 9 13 20 22
11 10 8 5 1 4 4 4 5 4 6 13 11 11 13 13 18 15 14 11 10 11 13 12 14 5 9 15 15 16 16 15 5 9 13 8 7 12 13 11 11 10 12 15 21
11 10 7 6 6 3 3 4 3 2 6 7 12 5 11 17 3 19 15 14 12 12 6 14 13 10 14 17 14 16 4 8 12 13 15 9 7 6 7 7 7 2 1 13 21
12 11 7 5 8 7 4 4 2 7 10 8 8 11 14 20 15 8 16 15 12 10 10 19 4 13 17 15 11 14 7 7 10 13 13 12 11 7 3 8 4 9 4 12 18
12 11 9 8 3 5 5 5 7 10 4 9 11 12 16 16 20 15 16 17 13 11 13 14 12 12 13 7 13 11 13 9 11 12 12 4 3 8 6 8 4 5 8 11 15
12 11 9 10 9 8 6 9 11 12 21 3 2 9 10 14 18 18 15 16 19 16 13 12 14 17 13 18 12 15 17 11 12 8 5 8 5 4 9 6 5 7 9 14 13
10 5 4 5 10 10 12 11 12 12 5 4 11 13 15 8 12 19 19 18 18 18 12 6 15 17 16 15 17 16 16 18 11 11 9 8 11 10 8 8 6 10 12 12 12
3 6 5 6 10 10 10 16 10 4 7 6 15 12 14 15 14 16 17 17 17 16 16 9 10 11 14 9 10 13 7 12 8 11 12 8 2 8 9 10 10 10 10 11 10
3 7 3 5 8 14 11 17 14 3 5 9 11 8 13 4 8 15 12 12 15 14 13 16 8 11 11 13 15 11 12 10 15 7 6 6 6 13 9 12 11 9 10 10 10
5 4 4 8 11 17 12 13 3 7 9 9 6 9 9 5 10 15 13 6 15 14 18 18 8 13 13 15 20 20 16 16 10 12 7 11 1 9 11 9 11 10 8 6 5
5 3 4 10 6 8 8 4 9 8 11 7 9 5 1 6 4 10 9 9 1 13 11 14 10 12 16 10 8 12 16 10 12 11 12 7 6 10 12 12 9 11 8 6 6
5 5 7 12 11 10 8 10 12 11 13 9 9 8 7 10 9 6 8 5 7 12 6 8 12 13 12 15 13 18 18 18 16 13 11 13 11 5 8 12 10 10 9 8 6
6 1 4 6 9 7 1 3 9 9 11 8 11 15 14 10 11 11 13 9 9 8 9 9 12 16 19 18 14 10 15 18 17 18 17 2 15 4 9 11 11 10 9 7 6
6 5 7 2 0 7 6 6 6 3 5 10 13 13 17 15 14 8 9 6 10 13 11 16 13 15 18 18 19 13 15 7 14 19 22 8 14 4 11 11 10 8 7 6 5
3 5 6 11 8 8 5 5 1 3 9 13 8 8 7 10 10 14 7 12 13 9 8 12 13 14 17 18 19 18 16 14 11 11 11 11 20 18 14 10 9 7 6 5 3
Wind_Direction
350 349 350 346 348 346 346 347 346 348 347 345 344 344 338 330 242 139 182 196 216 221 237 213 202 221 241 254 262 280 49 306 101 90 110 140 91 71 96 105 62 58 64 134 149
338 336 336 338 337 341 338 339 337 340 341 342 342 342 341 331 222 229 257 237 214 203 185 203 215 223 230 250 246 171 154 249 42 65 97 65 92 117 108 116 113 102 111 135 147
327 326 329 328 330 332 329 330 331 333 334 339 340 342 339 268 249 146 282 232 190 181 221 221 242 220 238 256 231 244 215 108 119 50 311 124 127 147 130 127 126 141 144 148 154
320 320 320 323 323 321 321 321 322 325 329 331 337 342 331 257 263 97 337 161 158 176 218 222 226 225 248 231 228 267 60 339 84 129 159 144 105 118 63 74 117 145 154 156 162
315 314 315 315 312 314 313 313 316 319 323 325 332 339 348 249 250 28 130 146 145 205 221 219 222 227 246 249 206 250 155 173 151 115 38 105 143 95 155 125 134 148 158 163 166
309 310 310 309 308 308 306 307 310 313 317 317 325 330 322 264 319 233 196 203 213 222 218 225 245 264 293 257 245 103 237 190 191 120 193 233 159 177 142 151 152 158 165 170 171
306 307 306 306 307 305 302 303 307 307 308 309 317 323 278 265 253 247 243 234 228 235 236 220 255 250 252 239 244 225 233 199 192 171 205 244 133 178 135 164 167 167 171 174 176
306 306 303 301 302 301 301 302 304 305 302 304 310 314 275 243 230 244 231 245 236 235 235 251 257 256 261 325 225 242 239 228 150 173 213 252 133 257 150 172 177 177 178 177 180
303 302 301 300 300 300 300 301 300 297 295 298 323 281 269 260 228 222 223 239 224 233 236 252 257 243 221 244 232 217 66 302 178 143 326 254 250 109 145 173 182 187 188 181 181
300 300 301 301 300 300 297 298 294 286 283 282 255 260 227 233 197 222 222 229 241 235 235 227 234 236 233 226 239 226 208 199 226 143 215 249 266 143 159 186 191 193 195 188 187
300 298 298 298 302 303 305 312 276 225 224 245 31 245 227 224 235 229 217 222 234 235 243 204 227 228 236 232 264 321 226 4 55 83 261 265 245 246 154 198 199 191 194 198 193
302 299 297 295 294 299 333 316 350 320 298 254 247 247 250 243 237 223 207 217 211 236 214 222 230 241 234 309 261 275 274 258 226 212 285 262 241 224 138 199 221 192 196 204 196
305 302 296 289 289 295 273 253 309 310 259 262 227 233 226 219 234 218 207 214 227 232 237 243 243 218 240 233 253 249 261 257 256 173 244 274 252 185 206 212 204 269 203 201 209
306 302 296 281 254 266 236 273 317 288 268 185 206 227 208 213 231 229 205 217 225 248 228 245 245 233 236 241 227 254 244 257 254 248 260 202 284 189 191 189 188 235 210 204 199
304 302 298 244 224 218 203 300 295 282 267 127 138 159 208 202 110 191 201 207 245 208 255 224 236 202 232 228 237 251 289 222 240 262 269 252 240 112 176 231 182 103 238 183 187
299 300 291 292 250 229 251 283 259 231 244 154 162 196 196 211 223 144 200 220 234 249 210 265 219 227 233 232 243 244 248 244 253 254 257 228 264 275 306 114 132 110 149 163 174
296 295 276 233 173 240 239 208 224 237 158 213 197 198 207 193 217 195 192 204 215 211 220 217 214 232 245 212 219 230 221 221 220 226 242 71 251 289 94 77 25 94 160 165 162
300 293 268 228 229 217 205 220 242 233 242 77 272 196 229 219 200 204 212 208 219 223 258 213 203 209 184 234 193 219 238 248 259 266 255 148 228 205 79 110 130 176 181 149 159
309 293 236 241 214 198 212 223 217 252 295 162 215 240 214 215 235 211 216 220 214 225 245 238 242 187 204 211 250 193 228 257 294 277 284 286 157 150 156 132 141 128 150 144 143
282 237 197 235 191 186 224 241 227 336 342 268 252 216 233 191 196 227 204 228 227 200 225 269 273 176 182 241 231 271 220 234 235 273 266 276 130 109 163 165 129 137 139 144 153
184 227 185 179 172 203 219 231 239 162 274 275 259 271 256 313 218 225 221 217 226 216 215 236 239 199 176 203 218 207 246 246 276 301 300 243 233 116 111 121 125 136 146 157 157
257 234 156 164 198 215 220 233 17 250 219 256 283 298 291 244 251 253 219 219 187 250 203 227 226 253 203 224 223 245 217 232 244 232 263 295 69 152 111 120 140 129 143 149 167
250 99 185 180 231 204 210 237 231 238 239 232 237 238 262 265 257 272 239 77 163 248 218 219 230 240 251 179 220 250 249 254 244 256 276 271 265 134 127 129 133 141 149 153 156
264 184 160 209 273 298 196 228 214 213 265 253 267 278 263 248 237 274 244 223 227 248 360 281 238 239 245 228 239 196 235 244 240 250 234 240 131 139 154 143 144 148 157 153 153
231 325 8 202 199 220 232 350 232 221 214 224 230 237 245 249 253 236 242 259 193 214 247 240 244 249 257 272 288 276 202 223 230 243 239 37 12 124 158 138 143 151 154 163 169
306 307 198 108 314 234 145 194 267 219 261 226 235 256 218 228 255 271 311 232 246 177 225 223 235 251 256 253 261 248 253 253 214 229 237 213 151 287 324 98 126 148 162 173 166
321 286 271 127 197 231 152 81 68 316 245 261 318 280 217 246 303 299 325 314 294 298 251 228 236 239 247 242 246 237 247 212 225 234 257 239 132 169 210 121 136 148 156 151 142
Height
1543 1543 1542 1541 1540 1539 1537 1536 1534 1532 1530 1528 1526 1524 1523 1521 1519 1519 1521 1521 1521 1520 1520 1521 1522 1522 1520 1515 1511 1506 1545 1529 1490 1506 1496 1497 1505 1511 1513 1516 1520 1521 1522 1527 1534
1543 1542 1541 1540 1539 1537 1536 1534 1533 1531 1530 1528 1526 1524 1522 1521 1519 1520 1519 1519 1520 1520 1520 1522 1522 1521 1518 1510 1506 1510 1553 1514 1487 1491 1493 1500 1504 1509 1509 1515 1520 1525 1528 1531 1535
1544 1542 1541 1539 1537 1536 1534 1533 1531 1530 1529 1527 1526 1524 1522 1521 1520 1517 1517 1517 1518 1519 1520 1522 1520 1519 1515 1503 1498 1494 1504 1489 1494 1496 1495 1497 1501 1504 1505 1510 1516 1523 1528 1533 1536
1544 1542 1540 1538 1537 1535 1533 1532 1530 1529 1527 1526 1525 1523 1522 1520 1515 1516 1517 1518 1518 1519 1521 1521 1519 1515 1509 1499 1498 1493 1494 1493 1495 1499 1499 1495 1499 1503 1505 1513 1516 1521 1527 1531 1535
1543 1542 1540 1538 1536 1535 1533 1531 1529 1528 1526 1524 1523 1522 1521 1519 1516 1516 1517 1518 1518 1520 1520 1518 1515 1512 1501 1493 1497 1493 1493 1496 1497 1500 1498 1499 1498 1500 1506 1513 1518 1523 1527 1530 1533
1542 1541 1539 1537 1535 1533 1531 1530 1527 1526 1525 1524 1522 1521 1521 1518 1517 1517 1517 1518 1519 1519 1517 1517 1511 1506 1502 1496 1496 1493 1495 1493 1495 1497 1500 1497 1498 1503 1504 1513 1518 1523 1527 1530 1532
1541 1539 1537 1535 1534 1532 1530 1527 1526 1525 1523 1523 1522 1520 1520 1517 1516 1517 1517 1518 1518 1517 1515 1516 1515 1512 1502 1498 1498 1496 1495 1490 1491 1493 1492 1498 1496 1497 1505 1511 1517 1521 1525 1529 1532
1539 1537 1536 1534 1533 1531 1528 1526 1525 1522 1522 1522 1520 1520 1517 1514 1516 1515 1516 1517 1517 1517 1516 1515 1513 1510 1504 1500 1499 1494 1488 1489 1485 1490 1490 1497 1549 1509 1501 1508 1515 1519 1523 1527 1531
1537 1536 1535 1533 1530 1528 1526 1524 1522 1521 1520 1520 1520 1520 1513 1512 1514 1514 1515 1515 1515 1515 1515 1514 1513 1507 1503 1501 1496 1485 1500 1507 1492 1490 1489 1491 1490 1488 1497 1505 1512 1518 1521 1526 1530
1536 1534 1532 1531 1529 1526 1525 1523 1521 1519 1518 1518 1518 1520 1511 1511 1512 1513 1514 1515 1514 1512 1512 1512 1510 1504 1499 1495 1506 1491 1489 1490 1495 1489 1491 1492 1490 1486 1493 1499 1505 1512 1519 1524 1528
1534 1533 1531 1529 1526 1526 1524 1522 1520 1518 1516 1510 1509 1507 1510 1511 1511 1511 1512 1513 1512 1511 1505 1503 1504 1503 1492 1488 1480 1482 1492 1487 1486 1489 1496 1490 1486 1483 1488 1495 1498 1506 1514 1520 1524
1532 1530 1528 1526 1525 1524 1524 1523 1522 1522 1514 1508 1509 1509 1510 1510 1508 1509 1511 1511 1508 1505 1501 1501 1506 1492 1488 1488 1485 1490 1494 1495 1487 1491 1493 1486 1488 1481 1486 1491 1494 1498 1507 1516 1520
1530 1528 1526 1525 1525 1525 1526 1525 1522 1523 1516 1500 1503 1504 1506 1509 1505 1502 1508 1505 1502 1501 1496 1501 1489 1488 1493 1494 1498 1495 1496 1492 1495 1488 1489 1488 1492 1484 1486 1490 1495 1498 1499 1507 1514
1528 1526 1524 1524 1526 1525 1525 1523 1524 1523 1511 1491 1497 1498 1502 1503 1501 1501 1502 1503 1500 1498 1495 1494 1488 1495 1498 1499 1495 1503 1487 1489 1490 1497 1502 1483 1508 1492 1480 1486 1489 1492 1495 1500 1509
1526 1524 1523 1523 1522 1526 1525 1524 1524 1524 1520 1485 1491 1495 1494 1498 1490 1495 1500 1500 1497 1496 1497 1496 1492 1496 1499 1494 1490 1496 1480 1488 1492 1495 1492 1487 1498 1484 1481 1486 1484 1489 1495 1497 1504
1524 1523 1521 1522 1521 1523 1522 1523 1524 1521 1514 1486 1485 1489 1492 1493 1490 1493 1497 1499 1497 1494 1494 1489 1489 1490 1490 1488 1489 1485 1492 1492 1492 1493 1508 1492 1494 1492 1482 1482 1484 1490 1497 1498 1503
1522 1520 1519 1519 1523 1520 1521 1524 1518 1512 1479 1482 1481 1481 1482 1483 1487 1489 1493 1496 1497 1506 1502 1492 1491 1489 1489 1490 1490 1490 1496 1515 1519 1511 1508 1481 1498 1491 1483 1484 1486 1491 1495 1499 1503
1518 1517 1516 1516 1517 1518 1522 1520 1517 1487 1481 1476 1478 1476 1480 1475 1480 1482 1485 1490 1487 1485 1485 1495 1502 1486 1484 1487 1490 1493 1490 1502 1521 1508 1497 1486 1506 1492 1482 1487 1491 1494 1495 1500 1504
1516 1515 1516 1516 1515 1517 1520 1512 1500 1484 1481 1480 1480 1483 1476 1473 1476 1479 1483 1480 1478 1482 1495 1486 1489 1471 1478 1482 1481 1486 1498 1479 1492 1485 1500 1484 1482 1479 1482 1484 1490 1492 1496 1501 1504
1515 1516 1515 1513 1513 1518 1515 1503 1488 1491 1492 1491 1491 1474 1478 1472 1481 1476 1478 1474 1474 1476 1483 1479 1495 1472 1477 1480 1479 1481 1477 1498 1494 1520 1517 1491 1488 1492 1486 1484 1491 1495 1500 1505 1507
1514 1511 1511 1512 1515 1516 1505 1495 1490 1496 1500 1493 1484 1479 1476 1472 1472 1471 1474 1471 1472 1472 1479 1480 1487 1475 1475 1486 1484 1487 1489 1482 1477 1483 1498 1508 1487 1466 1477 1480 1488 1497 1502 1505 1508
1513 1504 1510 1512 1513 1505 1497 1492 1501 1499 1500 1496 1494 1486 1481 1477 1480 1474 1473 1467 1469 1473 1478 1478 1480 1489 1481 1472 1474 1471 1478 1482 1497 1503 1491 1495 1499 1473 1481 1484 1491 1499 1504 1506 1508
1507 1505 1510 1511 1501 1495 1494 1498 1502 1499 1498 1494 1492 1490 1487 1485 1493 1477 1471 1473 1476 1475 1472 1475 1485 1496 1490 1475 1476 1480 1476 1473 1476 1482 1496 1502 1495 1475 1482 1487 1493 1500 1504 1507 1509
1508 1500 1507 1508 1503 1498 1492 1497 1497 1500 1499 1497 1495 1492 1493 1491 1486 1484 1478 1474 1480 1478 1480 1479 1477 1487 1485 1479 1466 1480 1481 1476 1480 1490 1490 1487 1495 1485 1483 1489 1497 1501 1504 1507 1509
1507 1497 1500 1495 1498 1498 1500 1497 1496 1495 1498 1496 1496 1495 1493 1494 1488 1484 1480 1473 1479 1480 1482 1480 1491 1483 1474 1469 1463 1461 1470 1473 1480 1479 1485 1482 1495 1490 1487 1485 1495 1501 1505 1507 1509
1509 1503 1504 1499 1503 1501 1502 1497 1495 1492 1497 1492 1495 1485 1486 1492 1490 1481 1477 1473 1473 1473 1480 1479 1488 1482 1479 1470 1467 1472 1465 1465 1469 1471 1472 1470 1494 1493 1499 1491 1496 1502 1505 1508 1510
1513 1511 1508 1501 1500 1496 1490 1496 1496 1499 1495 1494 1491 1488 1488 1490 1489 1486 1485 1485 1482 1482 1477 1478 1480 1485 1488 1469 1470 1480 1469 1465 1468 1466 1469 1478 1489 1502 1503 1496 1501 1503 1505 1508 1511